Volver al catálogo

STARLINK-5925

ActivoComunicacionesVLEO
NORAD 55945·PAYLOAD·🇺🇸 United States

Lanzado Mar 17, 2023 desde Vandenberg Space Force Base

Loading…

Próximos Pases (próximas 24 horas)

TLE

ActualizadoSource: CelesTrak SupGP

Época: Sep 15, 2026, 01:43 UTC

1 55945C 23037AH  26258.07201389  .00008872  00000+0  74342-3 0  2581
2 55945  70.0013 166.8761 0002845 273.4345 309.5618 14.98329552    14

Sigue STARLINK-5925 en tiempo real con AllMySat

Download on the App Store